User: anonymous   Login
Location: Unspecified
(0.0000°N, 0.0000°E)
Time: 02:11:27
(UTC+00:00)
Language:

FEDSAT - Orbit

View from above orbital plane
View from above orbital plane
View from above satellite
View from above satellite

Ground track
Ground track

The orbit data is extracted from the following two-line orbital elements,

1 27598U 02056B   18110.39913697 +.00000017 +00000-0 +23566-4 0  9996
2 27598 098.4777 061.6144 0010232 063.8077 296.4156 14.28653174800198
Epoch (UTC): 20 April 2018 09:34:45
Eccentricity: 0.0010232
inclination: 98.4777°
perigee height: 789 km
apogee height: 803 km
right ascension of ascending node: 61.6144°
argument of perigee: 63.8077°
revolutions per day: 14.28653174
mean anomaly at epoch: 296.4156°
orbit number at epoch: 80019

The dashed part of the orbit path shows where the satellite is in the earth's shadow,  

DLR